| 1 | King Tarlk | 48 | 15-08 15:48 |
| 2 | Verfa | 51 | 16-08 20:13 |
| 3 | Crazy Mechanic Golem | 43 | 16-08 23:32 |
| 4 | Giant Marpanak | 60 | 17-08 12:34 |
| 5 | Timak Orc Gosmos | 45 | 18-08 11:04 |
| 6 | Shacram | 45 | 18-08 16:36 |
| 7 | Tiger King Karuta | 45 | 18-08 18:40 |
| 8 | Sebek | 36 | 19-08 03:14 |
| 9 | Spirit of Andras, the Betrayer | 69 | 19-08 12:34 |
| 10 | Gargoyle Lord Tiphon | 65 | 19-08 20:13 |
| 11 | Archon Suscepter | 45 | 19-08 21:41 |
| 12 | Gwindorr | 40 | 19-08 23:29 |
| 13 | Betrayer of Urutu Freki | 25 | 20-08 07:31 |
| 14 | Mirror of Oblivion | 49 | 20-08 08:48 |
| 15 | Timak Orc Chief Ranger | 44 | 20-08 16:30 |
| 16 | Fierce Tiger King Angel | 65 | 20-08 17:49 |
| 17 | Fafurion's Herald Lokness | 70 | 20-08 18:37 |
| 18 | High Priestess van Halter | 87 | 20-08 20:10 |
| 19 | Lord of Splendor Anays | 87 | 20-08 20:28 |
| 20 | Kaysha Herald of Icarus | 21 | 20-08 20:49 |
| 21 | Uruka | 87 | 20-08 20:51 |
| 22 | Patriarch Kuroboros | 26 | 20-08 21:16 |
| 23 | Pan Dryad | 25 | 20-08 22:26 |
| 24 | Malex Herald of Dagoniel | 21 | 21-08 02:21 |
| 25 | Discarded Guardian | 20 | 21-08 03:11 |
| 26 | Turek Mercenary Captain | 30 | 21-08 04:14 |
| 27 | Apepi | 30 | 21-08 05:47 |
| 28 | Tiger Hornet | 26 | 21-08 12:30 |
| 29 | Mammon Collector Talos | 25 | 21-08 13:49 |
| 30 | Ragraman | 30 | 21-08 15:03 |
| 31 | Fafurion's Envoy Pingolpin | 52 | 21-08 18:35 |
| 32 | Skyla | 32 | 21-08 18:49 |
| 33 | Giant Wasteland Basilisk | 30 | 22-08 00:15 |
| 34 | Partisan Leader Talakin | 28 | 22-08 01:57 |
| 35 | Atraiban | 53 | 22-08 04:03 |
| 36 | Eva's Guardian Millenu | 65 | 22-08 05:12 |
| 37 | Katu Van Leader Atui | 49 | 22-08 06:18 |
| 38 | Princess Molrang | 25 | 22-08 10:04 |
| 39 | Fairy Queen Timiniel | 56 | 22-08 10:28 |
| 40 | Sorcerer Isirr | 55 | 22-08 11:03 |
| 41 | Zaken's Butcher Krantz | 55 | 22-08 11:47 |
| 42 | Bloody Priest Rudelto | 69 | 22-08 12:26 |
| 43 | Agent of Beres, Meana | 30 | 22-08 12:33 |
| 44 | Magus Kenishee | 53 | 22-08 15:14 |
| 45 | Gigantic Chaos Golem | 52 | 22-08 16:10 |
| 46 | Deadman Ereve | 51 | 22-08 16:18 |
| 47 | Zaken's Chief Mate Tillion | 50 | 22-08 18:17 |
| 48 | Greyclaw Kutus | 23 | 22-08 18:40 |
| 49 | Demon's Agent Falston | 66 | 22-08 19:49 |
| 50 | Cronos's Servitor Mumu | 34 | 22-08 19:51 |
| 51 | Orfen | 50 | 22-08 20:59 |
| 52 | Gargoyle Lord Sirocco | 35 | 22-08 21:34 |
| 53 | Pagan Watcher Cerberon | 55 | 22-08 22:52 |
| 54 | Tirak | 28 | 22-08 22:53 |
| 55 | Furious Thieles | 55 | 22-08 23:08 |
| 56 | Grave Robber Leader Akata | 30 | 22-08 23:10 |
| 57 | Ikuntai | 25 | 23-08 00:05 |
| 58 | Unrequited Kael | 24 | 23-08 02:37 |
| 59 | Timak Seer Ragoth | 57 | 23-08 02:56 |
| 60 | Eva's Spirit Niniel | 55 | 23-08 04:01 |
| 61 | Demon Kurikups | 65 | 23-08 04:29 |
| 62 | Enchanted Forest Watcher Ruell | 55 | 23-08 06:11 |
| 63 | Wizard of Storm Teruk | 40 | 23-08 06:19 |
| 64 | Messenger of Fairy Queen Berun | 50 | 23-08 07:03 |
| 65 | Guardian of the Statue of Giant Karum | 60 | 23-08 07:09 |
| 66 | The 3rd Underwater Guardian | 60 | 23-08 08:14 |
| 67 | Harit Guardian Garangky | 56 | 23-08 08:31 |
| 68 | Carnage Lord Gato | 50 | 23-08 08:40 |
| 69 | Refugee Hopeful Leo | 56 | 23-08 09:22 |
| 70 | Chertuba of Great Soul | 35 | 23-08 09:41 |
| 71 | Kuroboros' Priest | 23 | 23-08 09:45 |
| 72 | Lilith's Witch Marilion | 50 | 23-08 11:02 |
| 73 | Water Spirit Lian | 40 | 23-08 11:19 |
| 74 | Flamestone Golem | 44 | 23-08 12:22 |
| 75 | Ghost of Peasant Leader | 50 | 23-08 13:30 |
| 76 | Captain of Red Flag Shaka | 52 | 23-08 13:53 |
| 77 | Leto Chief Talkin | 40 | 23-08 15:33 |
| 78 | Grave Robber Kim | 52 | 23-08 15:53 |
| 79 | Iron Giant Totem | 45 | 23-08 16:35 |
| 80 | Unicorn Paniel | 54 | 23-08 19:16 |
| 81 | Carnamakos | 50 | 23-08 20:55 |
| 82 | Soul Scavenger | 25 | 23-08 22:27 |
| 83 | Bandit Leader Barda | 55 | 23-08 23:02 |
| 84 | Last Lesser Giant Olkuth | 75 | 23-08 23:11 |
| 85 | Shaman King Selu | 40 | 23-08 23:31 |
| 86 | Sejarr's Servitor | 35 | 24-08 00:16 |
| 87 | Ghost Knight Kabed | 55 | 24-08 00:48 |
| 88 | Rayito the Looter | 37 | 24-08 00:59 |
| 89 | Tasaba Patriarch Hellena | 35 | 24-08 01:24 |
| 90 | Antharas Priest Cloe | 74 | 24-08 01:32 |
| 91 | Water Dragon Seer Sheshark | 72 | 24-08 02:06 |
| 92 | Krokian Padisha Sobekk | 74 | 24-08 03:07 |
| 93 | Langk Matriarch Rashkos | 24 | 24-08 03:28 |
| 94 | Elf Renoa | 29 | 24-08 05:18 |
| 95 | Nellis Vengeful Spirit | 39 | 24-08 05:42 |
| 96 | Leader of Cat Gang | 39 | 24-08 05:55 |
| 97 | Cat's Eye Bandit | 30 | 24-08 07:58 |
| 98 | Stakato Queen Zyrnna | 34 | 24-08 08:24 |
| 99 | Captain of Queen's Royal Guards | 32 | 24-08 10:03 |
| 100 | Korim | 70 | 24-08 11:14 |
| 101 | Nakondas | 35 | 24-08 11:38 |
| 102 | Anakim's Nemesis Zakaron | 70 | 24-08 11:59 |
| 103 | Tracker Leader Sharuk | 23 | 24-08 12:16 |
| 104 | Lizardmen Leader Hellion | 38 | 24-08 13:41 |
| 105 | Harit Hero Tamash | 55 | 24-08 14:15 |
| 106 | Premo Prime | 38 | 24-08 14:26 |
| 107 | Corsair Captain Kylon | 33 | 24-08 14:26 |
| 108 | Flame Lord Shadar | 35 | 24-08 16:17 |
| 109 | Ketra's Chief Brakki | 87 | 24-08 17:23 |
| 110 | Ocean Flame Ashakiel | 76 | 24-08 17:52 |
| 111 | Retreat Spider Cletu | 42 | 24-08 20:34 |
| 112 | Queen Shyeed | 80 | 24-08 21:07 |
| 113 | Remmel | 35 | 24-08 23:09 |
| 114 | Nurka's Messenger | 33 | 24-08 23:17 |
| 115 | Red Eye Captain Trakia | 35 | 25-08 02:31 |
| 116 | Thief Kelbar | 44 | 25-08 02:55 |
| 117 | Death Lord Shax | 75 | 25-08 03:14 |
| 118 | Eye of Beleth | 35 | 25-08 04:03 |
| 119 | Black Lily | 55 | 25-08 04:26 |
| 120 | Evil Spirit Cyrion | 45 | 25-08 05:10 |
| 121 | Vuku Grand Seer Gharmash | 33 | 25-08 07:41 |
| 122 | Breka Warlock Pastu | 34 | 25-08 07:43 |
| 123 | Earth Protector Panathen | 43 | 25-08 10:03 |
| 124 | Revenant of Sir Calibus | 34 | 25-08 14:29 |
| 125 | Orfen's Handmaiden | 48 | 25-08 15:56 |
| 126 | Guilotine, Warden of the Execution Grounds | 35 | 25-08 17:45 |
| 127 | Fafurion's Henchman Istary | 45 | 25-08 18:47 |
| 128 | Death Lord Hallate | 73 | 25-08 18:56 |
| 129 | Road Scavenger Leader | 40 | 25-08 19:31 |
| 130 | Rotten Tree Repiro | 44 | 25-08 19:45 |
| 131 | Barion | 47 | 25-08 20:31 |
| 132 | Zaken | 60 | 25-08 21:29 |
| 133 | Dread Avenger Kraven | 44 | 25-08 21:32 |
| 134 | Fafurion's Page Sika | 40 | 25-08 23:03 |
| 135 | Karte | 49 | 25-08 23:09 |
| 136 | Necrosentinel Royal Guard | 47 | 26-08 01:01 |
| 137 | Bloody Empress Decarbia | 75 | 26-08 04:02 |
| 138 | Palibati Queen Themis | 70 | 26-08 08:03 |
| 139 | Shilen's Messenger Cabrio | 70 | 26-08 08:38 |
| 140 | Biconne of Blue Sky | 45 | 26-08 11:48 |
| 141 | Beleth's Seer Sephia | 55 | 26-08 19:10 |
| 142 | Evil Spirit Tempest | 36 | 26-08 20:21 |
| 143 | Cursed Clara | 50 | 26-08 22:54 |
| 144 | Icarus Sample 1 | 40 | 26-08 23:14 |
| 145 | Abyss Brukunt | 67 | 27-08 02:33 |
| 146 | Lord Ishka | 60 | 27-08 03:20 |
| 147 | Enmity Ghost Ramdal | 65 | 27-08 04:20 |
| 148 | Flame of Splendor Barakiel | 70 | 27-08 05:26 |
| 149 | Water Couatle Ateka | 40 | 27-08 06:22 |
| 150 | Soul Collector Acheron | 35 | 27-08 08:20 |
| 151 | Soulless Wild Boar | 59 | 27-08 12:04 |
| 152 | Meanas Anor | 70 | 27-08 12:46 |
| 153 | Ancient Weird Drake | 65 | 27-08 18:17 |
| 154 | Core | 50 | 27-08 18:59 |
| 155 | Hekaton Prime | 65 | 27-08 20:41 |
| 156 | Kernon's Faithful Servant Kelone | 67 | 27-08 21:33 |
| 157 | Taik High Prefect Arak | 60 | 27-08 23:55 |
| 158 | Shilen's Priest Hisilrome | 65 | 28-08 07:49 |
| 159 | Roaring Lord Kastor | 62 | 28-08 08:50 |
| 160 | Gorgolos | 64 | 28-08 10:53 |
| 161 | Ghost of the Well Lidia | 63 | 28-08 10:55 |
| 162 | Immortal Savior Mardil | 71 | 28-08 12:06 |
| 163 | Varka's Hero Shadith | 80 | 28-08 13:53 |
| 164 | Ketra's Hero Hekaton | 80 | 28-08 14:21 |
| 165 | Rahha | 65 | 28-08 22:26 |
| 166 | Flamestone Giant | 76 | 29-08 04:48 |
| 167 | Longhorn Golkonda | 79 | 29-08 06:48 |
| 168 | Last Titan Utenus | 66 | 29-08 10:14 |
| 169 | Vanor Chief Kandra | 72 | 29-08 12:53 |
| 170 | Fire of Wrath Shuriel | 78 | 29-08 14:58 |
| 171 | Last Lesser Giant Glaki | 78 | 29-08 16:54 |
| 172 | Ketra's Commander Tayr | 84 | 29-08 16:55 |
| 173 | Varka's Chief Horus | 87 | 29-08 17:20 |
| 174 | Storm Winged Naga | 75 | 29-08 18:34 |
| 175 | Ember | 85 | 29-08 19:54 |
| 176 | Death Lord Ipos | 75 | 29-08 22:56 |
| 177 | Cherub Galaxia | 79 | 30-08 00:39 |
| 178 | Palatanos of Horrific Power | 75 | 30-08 02:19 |
| 179 | Serpent Demon Bifrons | 21 | 30-08 11:32 |
| 180 | Varka's Commander Mos | 84 | 30-08 15:14 |
| 181 | Zombie Lord Crowl | 25 | 31-08 01:41 |
| 182 | Hestia, Guardian Deity of the Hot Springs | 78 | 31-08 02:52 |
| 183 | Sukar Wererat Chief | 21 | 31-08 18:12 |
| 184 | Queen Ant | 40 | 31-08 19:59 |
| 185 | Madness Beast | 20 | 01-09 05:16 |
| 186 | Zombie Lord Farakelsus | 20 | 01-09 10:55 |
| 187 | Kernon | 75 | 01-09 22:32 |
| 188 | Frintezza | 80 | 01-01 03:00 |
| 190 | none | | |
| 192 | High Priestess van Halter | 87 | 01-01 03:00 |
| 194 | none | | |
| 197 | none | | |
| 199 | Valakas | 85 | 01-01 03:00 |
| 201 | none | | |
| 203 | Antharas | 79 | 01-01 03:00 |
| 205 | none | | |
| 207 | Baium | 75 | 01-01 03:00 |
| 209 | none | | |